• In Hungary
  • List of Countries
  • For 7 days
  • Water Temperature
  • Satellite Maps
  • Weather Map
  • News
  • Weather Widgets
  • user-avatar
    Login

    Hourly Weather Sunny Beach

    Today, 14 November, Wednesday

    Time Temperature Precipitation Wind Pressure Humidity
    00:00 +5°C° 0 mm 4 mps 745 mmHg 84%
    01:00 +5°C° 0 mm 3 mps 745 mmHg 85%
    02:00 +5°C° 0 mm 3 mps 745 mmHg 86%
    03:00 +5°C° 0 mm 3 mps 744 mmHg 87%
    04:00 +4°C° 0 mm 3 mps 744 mmHg 88%
    05:00 +5°C° 0 mm 2 mps 744 mmHg 89%
    06:00 +5°C° 0 mm 2 mps 743 mmHg 88%
    07:00 +5°C° 0 mm 2 mps 743 mmHg 87%
    08:00 +5°C° 0 mm 2 mps 743 mmHg 87%
    09:00 +6°C° 0 mm 2 mps 743 mmHg 79%
    10:00 +8°C° 0 mm 2 mps 743 mmHg 72%
    11:00 +9°C° 0 mm 2 mps 743 mmHg 65%
    12:00 +9°C° 0 mm 2 mps 743 mmHg 64%
    13:00 +10°C° 0 mm 2 mps 743 mmHg 62%
    14:00 +10°C° 0 mm 2 mps 742 mmHg 60%
    15:00 +10°C° 0 mm 2 mps 742 mmHg 63%
    16:00 +9°C° 0 mm 2 mps 742 mmHg 66%
    17:00 +8°C° 0 mm 2 mps 741 mmHg 69%
    18:00 +8°C° 0 mm 2 mps 741 mmHg 72%
    19:00 +7°C° 0 mm 2 mps 741 mmHg 75%
    20:00 +7°C° 0 mm 2 mps 741 mmHg 77%
    21:00 +7°C° 0 mm 2 mps 741 mmHg 77%
    22:00 +7°C° 0 mm 2 mps 741 mmHg 77%
    23:00 +8°C° 0 mm 1 mps 741 mmHg 77%

    Tomorrow, 15 November, Thursday

    Time Temperature Precipitation Wind Pressure Humidity
    00:00 +8°C° 0.1 mm 1 mps 741 mmHg 78%
    01:00 +8°C° 0.1 mm 1 mps 741 mmHg 79%
    02:00 +8°C° 0.1 mm 1 mps 741 mmHg 80%
    03:00 +8°C° 0.1 mm 1 mps 740 mmHg 81%
    04:00 +8°C° 0.1 mm 1 mps 740 mmHg 83%
    05:00 +7°C° 0.1 mm 2 mps 739 mmHg 84%
    06:00 +7°C° 0.9 mm 3 mps 740 mmHg 86%
    07:00 +5°C° 0.9 mm 4 mps 740 mmHg 87%
    08:00 +5°C° 0.9 mm 5 mps 740 mmHg 88%
    09:00 +5°C° 1.3 mm 5 mps 740 mmHg 87%
    10:00 +5°C° 1.3 mm 6 mps 740 mmHg 86%
    11:00 +5°C° 1.3 mm 6 mps 741 mmHg 85%
    12:00 +5°C° 0.7 mm 6 mps 741 mmHg 81%
    13:00 +6°C° 0.7 mm 7 mps 740 mmHg 77%
    14:00 +6°C° 0.7 mm 7 mps 740 mmHg 73%
    15:00 +6°C° 0.2 mm 7 mps 740 mmHg 73%
    16:00 +6°C° 0.2 mm 7 mps 740 mmHg 73%
    17:00 +5°C° 0.2 mm 7 mps 740 mmHg 73%
    18:00 +5°C° 0.2 mm 7 mps 741 mmHg 75%
    19:00 +5°C° 0.2 mm 7 mps 741 mmHg 77%
    20:00 +5°C° 0.2 mm 7 mps 741 mmHg 79%
    21:00 +5°C° 0.2 mm 6 mps 741 mmHg 80%
    22:00 +4°C° 0.2 mm 6 mps 741 mmHg 81%
    23:00 +4°C° 0.2 mm 6 mps 741 mmHg 82%

    Day after tomorrow, 16 November, Friday

    Time Temperature Precipitation Wind Pressure Humidity
    00:00 +4°C° 0.2 mm 6 mps 741 mmHg 83%
    01:00 +4°C° 0.2 mm 6 mps 741 mmHg 83%
    02:00 +4°C° 0.2 mm 7 mps 741 mmHg 84%
    03:00 +3°C° 0.3 mm 7 mps 741 mmHg 84%
    04:00 +3°C° 0.3 mm 7 mps 741 mmHg 84%
    05:00 +3°C° 0.3 mm 7 mps 741 mmHg 84%
    06:00 +3°C° 0.2 mm 7 mps 741 mmHg 83%
    07:00 +3°C° 0.2 mm 7 mps 742 mmHg 83%
    08:00 +1°C° 0.2 mm 8 mps 742 mmHg 82%
    09:00 +2°C° 0.1 mm 8 mps 742 mmHg 76%
    10:00 +4°C° 0.1 mm 8 mps 743 mmHg 71%
    11:00 +4°C° 0.1 mm 8 mps 743 mmHg 65%
    12:00 +4°C° 0.1 mm 8 mps 743 mmHg 67%
    13:00 +4°C° 0.1 mm 8 mps 743 mmHg 68%
    14:00 +4°C° 0.1 mm 8 mps 743 mmHg 70%
    15:00 +2°C° 0.1 mm 8 mps 743 mmHg 71%
    16:00 +2°C° 0.1 mm 8 mps 743 mmHg 72%
    17:00 +1°C° 0.1 mm 8 mps 743 mmHg 73%
    18:00 +1°C° 0.1 mm 8 mps 743 mmHg 72%
    19:00 +2°C° 0.1 mm 7 mps 743 mmHg 71%
    20:00 +2°C° 0.1 mm 7 mps 744 mmHg 70%
    21:00 0°C° 0 mm 7 mps 744 mmHg 71%
    22:00 0°C° 0 mm 7 mps 744 mmHg 73%
    23:00 0°C° 0 mm 7 mps 744 mmHg 74%

    17 November, Saturday

    Time Temperature Precipitation Wind Pressure Humidity
    00:00 0°C° 0 mm 7 mps 744 mmHg 74%
    01:00 0°C° 0 mm 7 mps 744 mmHg 74%
    02:00 -1°C° 0 mm 7 mps 744 mmHg 74%
    03:00 -1°C° 0 mm 7 mps 744 mmHg 75%
    04:00 -1°C° 0 mm 7 mps 744 mmHg 75%
    05:00 -2°C° 0 mm 7 mps 744 mmHg 76%
    06:00 -2°C° 0 mm 7 mps 744 mmHg 76%
    07:00 -2°C° 0 mm 7 mps 745 mmHg 76%
    08:00 -2°C° 0 mm 6 mps 745 mmHg 75%
    09:00 -1°C° 0 mm 6 mps 745 mmHg 71%
    10:00 +1°C° 0 mm 6 mps 745 mmHg 67%
    11:00 +2°C° 0 mm 6 mps 745 mmHg 63%
    12:00 +2°C° 0 mm 6 mps 745 mmHg 63%
    13:00 +3°C° 0 mm 7 mps 745 mmHg 62%
    14:00 +3°C° 0 mm 7 mps 745 mmHg 62%
    15:00 +2°C° 0 mm 6 mps 745 mmHg 65%
    16:00 +2°C° 0 mm 6 mps 745 mmHg 68%
    17:00 +1°C° 0 mm 6 mps 746 mmHg 71%
    18:00 +1°C° 0 mm 6 mps 746 mmHg 71%
    19:00 +1°C° 0 mm 6 mps 746 mmHg 71%
    20:00 -1°C° 0 mm 6 mps 746 mmHg 71%
    21:00 0°C° 0 mm 5 mps 746 mmHg 71%
    22:00 0°C° 0 mm 5 mps 746 mmHg 71%
    23:00 0°C° 0 mm 5 mps 746 mmHg 70%

    18 November, Sunday

    Time Temperature Precipitation Wind Pressure Humidity
    00:00 -1°C° 0 mm 5 mps 746 mmHg 70%
    01:00 -1°C° 0 mm 5 mps 746 mmHg 71%
    02:00 -1°C° 0 mm 4 mps 746 mmHg 71%
    03:00 -1°C° 0 mm 4 mps 746 mmHg 71%
    04:00 -2°C° 0 mm 4 mps 745 mmHg 71%
    05:00 -2°C° 0 mm 4 mps 745 mmHg 71%
    06:00 -2°C° 0 mm 4 mps 745 mmHg 70%
    07:00 -1°C° 0 mm 4 mps 745 mmHg 69%
    08:00 -1°C° 0 mm 4 mps 745 mmHg 69%
    09:00 0°C° 0 mm 4 mps 745 mmHg 65%
    10:00 +1°C° 0 mm 4 mps 745 mmHg 61%
    11:00 +4°C° 0 mm 4 mps 745 mmHg 56%
    12:00 +4°C° 0 mm 4 mps 744 mmHg 56%
    13:00 +5°C° 0 mm 4 mps 744 mmHg 55%
    14:00 +6°C° 0 mm 4 mps 743 mmHg 55%
    15:00 +5°C° 0 mm 4 mps 742 mmHg 59%
    16:00 +4°C° 0 mm 4 mps 742 mmHg 63%
    17:00 +3°C° 0 mm 3 mps 741 mmHg 67%
    18:00 +3°C° 0 mm 3 mps 741 mmHg 69%
    19:00 +2°C° 0 mm 3 mps 741 mmHg 71%
    20:00 +2°C° 0 mm 3 mps 740 mmHg 73%
    21:00 +2°C° 0 mm 3 mps 740 mmHg 73%
    22:00 +2°C° 0 mm 3 mps 739 mmHg 73%
    23:00 +2°C° 0 mm 3 mps 739 mmHg 72%

    19 November, Monday

    Time Temperature Precipitation Wind Pressure Humidity
    00:00 +2°C° 0 mm 3 mps 738 mmHg 72%
    01:00 +2°C° 0 mm 3 mps 738 mmHg 72%
    02:00 +2°C° 0 mm 3 mps 737 mmHg 72%
    03:00 +2°C° 0 mm 3 mps 737 mmHg 72%
    04:00 +2°C° 0 mm 3 mps 736 mmHg 72%
    05:00 +2°C° 0 mm 3 mps 736 mmHg 73%
    06:00 +2°C° 0 mm 3 mps 736 mmHg 73%
    07:00 +2°C° 0 mm 3 mps 736 mmHg 73%
    08:00 +2°C° 0 mm 3 mps 735 mmHg 73%
    09:00 +3°C° 0.3 mm 3 mps 735 mmHg 72%
    10:00 +4°C° 0.3 mm 4 mps 735 mmHg 72%
    11:00 +4°C° 0.3 mm 4 mps 735 mmHg 72%
    12:00 +4°C° 0.4 mm 4 mps 735 mmHg 74%
    13:00 +5°C° 0.4 mm 4 mps 734 mmHg 75%
    14:00 +5°C° 0.4 mm 4 mps 734 mmHg 77%
    15:00 +5°C° 0.3 mm 4 mps 734 mmHg 78%
    16:00 +5°C° 0.3 mm 4 mps 734 mmHg 80%
    17:00 +5°C° 0.3 mm 4 mps 733 mmHg 82%
    18:00 +5°C° 0.2 mm 4 mps 733 mmHg 83%
    19:00 +5°C° 0.2 mm 5 mps 733 mmHg 84%
    20:00 +5°C° 0.2 mm 5 mps 733 mmHg 85%
    21:00 +5°C° 0.4 mm 5 mps 733 mmHg 87%
    22:00 +5°C° 0.4 mm 4 mps 733 mmHg 88%
    23:00 +5°C° 0.4 mm 4 mps 733 mmHg 90%
    Show more